TJS-5 (44978 NORAD) Tracking and Keplerian Element Data

This shows tracking and keplerian element data for the satellite.

Feedback or suggestion? Click here.




ElementValue
Catalog44978
NameTJS-5
Epoch Orbit98
Epoch Day93.84146676
Epoch Year2020
RAAN282.4881
Inclination0.8333
Eccentricity5.83E-05
Argument of Perigee108.1561
Mean Anonmoly282.4354
Mean Motion1.00271542
Decay Rate3.3E-07
L11 44978U 20002A 20093.84146676 .00000033 00000-0 10000-3 0 9992
L22 44978 0.8333 282.4881 0000583 108.1561 282.4354 1.00271542 989

Live tracking and technical data element details for TJS-5 (NORAD 44978). TJS-5 can be tracked NOW for your location showing map with azimuth and elevation plus other details from your city location.

Track the satellite on the map from your city or location and see movement details for azimuth, elevation, latitude, longitude, range, height, and movement on the map or in text.







IsCatalogInMostPopularTable: catalog: 44978, numindb: 20
Update: records affected: 1



GetName: 44978 TJS-5

Hit Count: updated at: Sun, 05 Apr 2020 20:10:45 GMT